Location: Gälforsberget
(66.6500°N, 22.4167°E)
Time: 21:22:52
(UTC+00:00)

Cosmos 2369 - Pass Details

Date: 11 April 2026
Orbit: 838 x 855 km, 71.0° (Epoch: 11 May)

Event Time Altitude Azimuth Distance (km) Brightness Sun altitude
Rises 23:14:34 0° 302° (WNW) 3,409 7.1 -14.3°
Reaches altitude 10° 23:17:01 10° 303° (WNW) 2,475 6.4 -14.3°
Maximum altitude 23:22:43 82° 32° (NNE) 864 3.8 -14.2°
Drops below altitude 10° 23:28:26 10° 121° (ESE) 2,479 6.0 -14.0°
Sets 23:30:53 0° 122° (ESE) 3,415 6.7 -14.0°
